Find Starlink 32124

NORAD ID: 60298 Int'l Des: 2024-132 Owner: SPXS Country: US Constellation: starlink operational
LEOCIRCULAR

当前视图

正在加载3D地球...

About Starlink 32124

Starlink 32124 (NORAD 60298) is a starlink constellation satellite (v2 mini) launched Jul 28, 2024 by SPXS of US. It operates in LEO, CIRCULAR orbit with a mass of 730.00 kg.

关于 Starlink 32124

正在加载描述...

即将过境

Passes for default location (London). Set your location on the main map for personalized predictions.

高度历史

Loading altitude history...

两行轨道根数

1 60298U 24132W 26175.00436010 -.00000672 00000-0 -98969-5 0 9995
2 60298 53.1580 278.1867 0000803 80.4287 279.6805 15.31701745107849
Epoch: Jun 24, 2026 • Age: 27 hours

当前状态

高度 470.8 km
速度 7.63 km/s
星下点 18.78°N, 28.03°W
发射日期 Jul 28, 2024
运行时间 1.9 years
类型 internet

技术详情

分类 Payload
质量 730.00 kg
干质量 700.00 kg
总质量 730.00 kg
长度 0.30 m
直径 4.10 m
跨度 29.00 m
形状 Box + pan
制造商 SPXS
平台类型 Starlink V2M
阶段状态 In Orbit
所有者/国家 SPXS/US

Most Searched